,,Stat6,,Stat2,,Stat8,,Stat9,,Stat10,,Wind1,,Wind1,
time,status,PA1M_AVG,status,PR1M_SUM,status,RH1M_AVG,status,SR1M_AVG,status,TA1M_AVG,status,W1dAve1m,status,W1sAve1m,
2006-04-16, 00:00:00,VALID,917.26,VALID,0,VALID,98.4692,VALID,-0.254712,VALID,21.1045,VALID,8,VALID,0.265443,
2006-04-16, 00:01:00,VALID,917.285,VALID,0,VALID,98.5583,VALID,-0.220751,VALID,20.6978,VALID,8,VALID,0.144922,
2006-04-16, 00:02:00,VALID,917.322,VALID,0,VALID,98.5392,VALID,-0.220751,VALID,20.3305,VALID,8,VALID,0.00327035,
2006-04-16, 00:03:00,VALID,917.343,VALID,0,VALID,98.1704,VALID,-0.20377,VALID,20.1473,VALID,8,VALID,0.0145089,
2006-04-16, 00:04:00,VALID,917.378,VALID,0,VALID,98.1348,VALID,-0.20377,VALID,20.6006,VALID,8,VALID,0.224382,
2006-04-16, 00:05:00,VALID,917.398,VALID,0,VALID,98.2531,VALID,-0.20377,VALID,20.5658,VALID,8,VALID,0.0388622,
2006-04-16, 00:06:00,VALID,917.403,VALID,0,VALID,98.2696,VALID,-0.20377,VALID,21.5413,VALID,8,VALID,0.25071,
2006-04-16, 00:07:00,VALID,917.413,VALID,0,VALID,98.2785,VALID,-0.20377,VALID,21.0469,VALID,8,VALID,0.140253,
2006-04-16, 00:08:00,VALID,917.407,VALID,0,VALID,98.2543,VALID,-0.220751,VALID,20.3184,VALID,8,VALID,0.000363372,
2006-04-16, 00:09:00,VALID,917.4,VALID,0,VALID,98.2238,VALID,-0.220751,VALID,21.4853,VALID,8,VALID,0.130022,
2006-04-16, 00:10:00,VALID,917.421,VALID,0,VALID,98.0674,VALID,-0.20377,VALID,20.9614,VALID,8,VALID,0.26734,
2006-04-16, 00:11:00,VALID,917.421,VALID,0,VALID,98.075,VALID,-0.237732,VALID,20.1999,VALID,8,VALID,0.323864,
2006-04-16, 00:12:00,VALID,917.41,VALID,0,VALID,98.1272,VALID,-0.237732,VALID,20.4101,VALID,8,VALID,0.290104,
2006-04-16, 00:13:00,VALID,917.406,VALID,0,VALID,97.9771,VALID,-0.254712,VALID,20.0638,VALID,8,VALID,0.319712,
2006-04-16, 00:14:00,VALID,917.393,VALID,0,VALID,98.0026,VALID,-0.271693,VALID,20.5079,VALID,8,VALID,0.0864583,
2006-04-16, 00:15:00,VALID,917.371,VALID,0,VALID,98.1323,VALID,-0.20377,VALID,20.5419,VALID,8,VALID,0.0226935,
2006-04-16, 00:16:00,VALID,917.35,VALID,0,VALID,98.2353,VALID,-0.220751,VALID,20.4133,VALID,8,VALID,0,
2006-04-16, 00:17:00,VALID,917.333,VALID,0,VALID,98.234,VALID,-0.20377,VALID,20.5465,VALID,8,VALID,0.0381098,
2006-04-16, 00:18:00,VALID,917.342,VALID,0,VALID,98.3523,VALID,-0.20377,VALID,21.1519,VALID,8,VALID,0.146913,
2006-04-16, 00:19:00,VALID,917.351,VALID,0,VALID,98.3039,VALID,-0.169808,VALID,20.8354,VALID,3,VALID,0.0790777,
2006-04-16, 00:20:00,VALID,917.339,VALID,0,VALID,98.1666,VALID,-0.237732,VALID,20.296,VALID,2,VALID,0.224746,
2006-04-16, 00:21:00,VALID,917.342,VALID,0,VALID,98.2404,VALID,-0.237732,VALID,20.6795,VALID,11,VALID,0.527616,
2006-04-16, 00:22:00,VALID,917.341,VALID,0,VALID,98.4146,VALID,-0.220751,VALID,20.6087,VALID,13,VALID,0.593941,
2006-04-16, 00:23:00,VALID,917.335,VALID,0,VALID,98.5214,VALID,-0.237732,VALID,20.7881,VALID,13,VALID,0.691051,
2006-04-16, 00:24:00,VALID,917.36,VALID,0,VALID,98.6104,VALID,-0.20377,VALID,20.459,VALID,20,VALID,0.703697,
2006-04-16, 00:25:00,VALID,917.369,VALID,0,VALID,98.5405,VALID,-0.220751,VALID,21.1493,VALID,16,VALID,0.914608,
2006-04-16, 00:26:00,VALID,917.402,VALID,0,VALID,98.5875,VALID,-0.20377,VALID,20.9287,VALID,22,VALID,1.05238,
2006-04-16, 00:27:00,VALID,917.419,VALID,0,VALID,98.7922,VALID,-0.220751,VALID,21.3655,VALID,19,VALID,0.901495,
2006-04-16, 00:28:00,VALID,917.46,VALID,0,VALID,98.8482,VALID,-0.220751,VALID,20.3046,VALID,21,VALID,0.962713,
2006-04-16, 00:29:00,VALID,917.502,VALID,0,VALID,98.899,VALID,-0.20377,VALID,20.432,VALID,23,VALID,0.8212,
2006-04-16, 00:30:00,VALID,917.558,VALID,0,VALID,98.997,VALID,-0.20377,VALID,21.2393,VALID,25,VALID,0.769531,
2006-04-16, 00:31:00,VALID,917.589,VALID,0,VALID,98.969,VALID,-0.118866,VALID,20.9843,VALID,24,VALID,0.90189,
2006-04-16, 00:32:00,VALID,917.624,VALID,0,VALID,98.9703,VALID,-0.118866,VALID,20.537,VALID,27,VALID,0.809613,
2006-04-16, 00:33:00,VALID,917.637,VALID,0,VALID,98.8812,VALID,-0.135847,VALID,21.0994,VALID,11,VALID,0.77255,
2006-04-16, 00:34:00,VALID,917.657,VALID,0,VALID,98.4565,VALID,-0.135847,VALID,20.1389,VALID,4,VALID,0.58689,
2006-04-16, 00:35:00,VALID,917.665,VALID,0,VALID,98.6613,VALID,-0.0849042,VALID,20.5287,VALID,5,VALID,0.267671,
2006-04-16, 00:36:00,VALID,917.668,VALID,0,VALID,98.777,VALID,-0.0509425,VALID,21.0302,VALID,5,VALID,0.365767,
2006-04-16, 00:37:00,VALID,917.666,VALID,0,VALID,98.8189,VALID,-0.0509425,VALID,20.0877,VALID,5,VALID,0.291481,
2006-04-16, 00:38:00,VALID,917.654,VALID,0,VALID,98.9219,VALID,-0.220751,VALID,21.6531,VALID,5,VALID,0.263148,
2006-04-16, 00:39:00,VALID,917.631,VALID,0,VALID,98.9525,VALID,-0.20377,VALID,20.7582,VALID,17,VALID,0.700893,
2006-04-16, 00:40:00,VALID,917.612,VALID,0,VALID,99.0618,VALID,-0.20377,VALID,20.6707,VALID,27,VALID,0.85404,
2006-04-16, 00:41:00,VALID,917.611,VALID,0,VALID,99.1165,VALID,-0.20377,VALID,21.0846,VALID,21,VALID,0.855378,
2006-04-16, 00:42:00,VALID,917.597,VALID,0,VALID,98.8342,VALID,-0.288674,VALID,21.0282,VALID,341,VALID,0.709484,
2006-04-16, 00:43:00,VALID,917.602,VALID,0,VALID,98.688,VALID,-0.237732,VALID,21.1583,VALID,348,VALID,0.556734,
2006-04-16, 00:44:00,VALID,917.593,VALID,0,VALID,98.8469,VALID,-0.220751,VALID,20.0472,VALID,13,VALID,0.54859,
2006-04-16, 00:45:00,VALID,917.6,VALID,0,VALID,98.8889,VALID,-0.20377,VALID,19.9068,VALID,13,VALID,0.574119,
2006-04-16, 00:46:00,VALID,917.61,VALID,0,VALID,99.0656,VALID,-0.20377,VALID,20.456,VALID,13,VALID,0.299924,
2006-04-16, 00:47:00,VALID,917.627,VALID,0,VALID,99.2119,VALID,-0.220751,VALID,20.5553,VALID,13,VALID,0.494004,
2006-04-16, 00:48:00,VALID,917.641,VALID,0,VALID,99.2437,VALID,-0.288674,VALID,20.1782,VALID,13,VALID,0.448847,
2006-04-16, 00:49:00,VALID,917.664,VALID,0,VALID,99.0822,VALID,-0.271693,VALID,20.8443,VALID,13,VALID,0.240589,
2006-04-16, 00:50:00,VALID,917.674,VALID,0,VALID,99.2843,VALID,-0.220751,VALID,20.785,VALID,13,VALID,0.377663,
2006-04-16, 00:51:00,VALID,917.689,VALID,0,VALID,99.5616,VALID,-0.169808,VALID,21.0326,VALID,13,VALID,0.471628,
2006-04-16, 00:52:00,VALID,917.673,VALID,0,VALID,99.5895,VALID,-0.237732,VALID,20.858,VALID,14,VALID,0.532617,
2006-04-16, 00:53:00,VALID,917.679,VALID,0,VALID,99.6442,VALID,-0.254712,VALID,21.1677,VALID,14,VALID,0.587612,
2006-04-16, 00:54:00,VALID,917.679,VALID,0,VALID,99.4229,VALID,-0.220751,VALID,21.2517,VALID,14,VALID,0.519817,
2006-04-16, 00:55:00,VALID,917.671,VALID,0,VALID,99.2818,VALID,-0.237732,VALID,20.8825,VALID,14,VALID,0.49949,
2006-04-16, 00:56:00,VALID,917.677,VALID,0,VALID,99.4051,VALID,-0.254712,VALID,21.2333,VALID,19,VALID,0.451705,
2006-04-16, 00:57:00,VALID,917.677,VALID,0,VALID,99.5399,VALID,-0.254712,VALID,20.628,VALID,21,VALID,0.576079,
2006-04-16, 00:58:00,VALID,917.679,VALID,0,VALID,99.6531,VALID,-0.237732,VALID,19.9468,VALID,21,VALID,0.624455,
2006-04-16, 00:59:00,VALID,917.683,VALID,0,VALID,99.5946,VALID,-0.20377,VALID,20.0486,VALID,21,VALID,0.289063,
2006-04-16, 01:00:00,VALID,917.702,VALID,0,VALID,99.5336,VALID,-0.20377,VALID,20.5254,VALID,21,VALID,0,
2006-04-16, 01:01:00,VALID,917.705,VALID,0,VALID,99.3683,VALID,-0.20377,VALID,21.1285,VALID,21,VALID,0,
2006-04-16, 01:02:00,VALID,917.711,VALID,0,VALID,99.311,VALID,-0.220751,VALID,20.1661,VALID,21,VALID,0.000952744,
2006-04-16, 01:03:00,VALID,917.73,VALID,0,VALID,99.4242,VALID,-0.237732,VALID,20.4017,VALID,21,VALID,0,
2006-04-16, 01:04:00,VALID,917.739,VALID,0,VALID,99.3238,VALID,-0.20377,VALID,19.9037,VALID,21,VALID,0.20503,
2006-04-16, 01:05:00,VALID,917.755,VALID,0,VALID,99.3365,VALID,-0.336475,VALID,21.514,VALID,21,VALID,0.449591,
2006-04-16, 01:06:00,VALID,917.783,VALID,0,VALID,99.5081,VALID,-1,VALID,20.6283,VALID,21,VALID,0.196075,
2006-04-16, 01:07:00,VALID,917.814,VALID,0,VALID,99.3988,VALID,-0.867295,VALID,21.3386,VALID,21,VALID,0.0482422,
2006-04-16, 01:08:00,VALID,917.839,VALID,0,VALID,99.2271,VALID,-0.20377,VALID,19.9897,VALID,97,VALID,0.358041,
2006-04-16, 01:09:00,VALID,917.865,VALID,0,VALID,99.2627,VALID,-0.220751,VALID,20.2626,VALID,213,VALID,0.267299,
2006-04-16, 01:10:00,VALID,917.876,VALID,0,VALID,99.484,VALID,-0.220751,VALID,20.8488,VALID,352,VALID,0.415421,
2006-04-16, 01:11:00,VALID,917.902,VALID,0,VALID,99.3454,VALID,-0.237732,VALID,20.0464,VALID,39,VALID,0.222852,
2006-04-16, 01:12:00,VALID,917.905,VALID,0,VALID,99.4484,VALID,-0.237732,VALID,20.3488,VALID,35,VALID,0.498402,
2006-04-16, 01:13:00,VALID,917.907,VALID,0,VALID,99.6747,VALID,-0.237732,VALID,19.615,VALID,25,VALID,0.873183,
2006-04-16, 01:14:00,VALID,917.918,VALID,0,VALID,99.854,VALID,-0.288674,VALID,20.5358,VALID,14,VALID,0.829033,
2006-04-16, 01:15:00,VALID,917.923,VALID,0,VALID,99.9919,VALID,-0.254712,VALID,20.2712,VALID,22,VALID,0.586124,
2006-04-16, 01:16:00,VALID,917.913,VALID,0,VALID,100,VALID,-0.288674,VALID,20.6084,VALID,10,VALID,0.642485,
2006-04-16, 01:17:00,VALID,917.914,VALID,0,VALID,100,VALID,-0.254712,VALID,21.2024,VALID,12,VALID,0.680804,
2006-04-16, 01:18:00,VALID,917.912,VALID,0,VALID,99.9059,VALID,-0.271693,VALID,21.2277,VALID,9,VALID,0.693496,
2006-04-16, 01:19:00,VALID,917.902,VALID,0,VALID,99.4903,VALID,-0.305655,VALID,20.6831,VALID,6,VALID,1.36417,
2006-04-16, 01:20:00,VALID,917.895,VALID,0,VALID,99.3174,VALID,-0.288674,VALID,19.8124,VALID,25,VALID,0.524503,
2006-04-16, 01:21:00,VALID,917.885,VALID,0,VALID,99.5348,VALID,-0.220751,VALID,20.5989,VALID,20,VALID,0.323686,
2006-04-16, 01:22:01,VALID,917.863,VALID,0,VALID,99.6989,VALID,-0.220751,VALID,20.1965,VALID,22,VALID,0.428622,
2006-04-16, 01:23:01,VALID,917.854,VALID,0,VALID,99.7345,VALID,-0.186789,VALID,20.8806,VALID,28,VALID,0.579427,
2006-04-16, 01:24:00,VALID,917.844,VALID,0,VALID,99.7828,VALID,-0.20377,VALID,20.7556,VALID,13,VALID,0.802641,
2006-04-16, 01:25:01,VALID,917.838,VALID,0,VALID,99.9112,VALID,-0.220751,VALID,20.6587,VALID,30,VALID,0.810547,
2006-04-16, 01:26:01,VALID,917.828,VALID,0,VALID,99.999,VALID,-0.254712,VALID,20.2116,VALID,32,VALID,0.818496,
2006-04-16, 01:27:00,VALID,917.834,VALID,0,VALID,100,VALID,-0.237732,VALID,21.214,VALID,22,VALID,0.775441,
2006-04-16, 01:28:00,VALID,917.844,VALID,0,VALID,100,VALID,-0.288674,VALID,20.8146,VALID,21,VALID,0.955543,
2006-04-16, 01:29:00,VALID,917.849,VALID,0,VALID,99.9687,VALID,-0.220751,VALID,20.7817,VALID,24,VALID,0.668924,
2006-04-16, 01:30:01,VALID,917.863,VALID,0,VALID,99.8273,VALID,-0.271693,VALID,20.7812,VALID,15,VALID,0.886111,
2006-04-16, 01:31:00,VALID,917.862,VALID,0,VALID,99.868,VALID,-0.152827,VALID,19.6359,VALID,22,VALID,0.75705,
2006-04-16, 01:32:00,VALID,917.868,VALID,0,VALID,99.9438,VALID,-0.254712,VALID,20.3589,VALID,22,VALID,0.4504,
2006-04-16, 01:33:00,VALID,917.858,VALID,0,VALID,99.8642,VALID,-0.20377,VALID,19.5728,VALID,22,VALID,0.263626,
2006-04-16, 01:34:00,VALID,917.857,VALID,0,VALID,99.9311,VALID,-0.20377,VALID,20.7806,VALID,22,VALID,0.255814,
2006-04-16, 01:35:00,VALID,917.86,VALID,0,VALID,99.9875,VALID,-0.305655,VALID,20.349,VALID,22,VALID,0.0131392,
2006-04-16, 01:36:00,VALID,917.87,VALID,0,VALID,99.7841,VALID,-0.618866,VALID,20.6218,VALID,22,VALID,0,
2006-04-16, 01:37:01,VALID,917.884,VALID,0,VALID,99.8795,VALID,-0.220751,VALID,20.4477,VALID,22,VALID,0,
2006-04-16, 01:38:00,VALID,917.892,VALID,0,VALID,99.8286,VALID,-0.20377,VALID,20.2402,VALID,22,VALID,0,
2006-04-16, 01:39:00,VALID,917.892,VALID,0,VALID,99.4725,VALID,-0.20377,VALID,20.4508,VALID,352,VALID,0.210366,
2006-04-16, 01:40:00,VALID,917.908,VALID,0,VALID,99.1839,VALID,-0.220751,VALID,20.2334,VALID,212,VALID,0.26441,
2006-04-16, 01:41:01,VALID,917.923,VALID,0,VALID,99.4954,VALID,-0.220751,VALID,20.9375,VALID,5,VALID,0.556548,
2006-04-16, 01:42:01,VALID,917.948,VALID,0,VALID,99.4789,VALID,-0.20377,VALID,20.771,VALID,4,VALID,0.544097,
2006-04-16, 01:43:01,VALID,917.944,VALID,0,VALID,99.3721,VALID,-0.20377,VALID,19.4851,VALID,4,VALID,0.370536,
2006-04-16, 01:44:01,VALID,917.954,VALID,0,VALID,99.1368,VALID,-0.20377,VALID,20.1394,VALID,4,VALID,0.31529,
2006-04-16, 01:45:01,VALID,917.958,VALID,0,VALID,99.3352,VALID,-0.220751,VALID,20.7178,VALID,4,VALID,0.304155,
2006-04-16, 01:46:00,VALID,917.96,VALID,0,VALID,99.5704,VALID,-0.186789,VALID,20.5866,VALID,4,VALID,0.316034,
2006-04-16, 01:47:00,VALID,917.961,VALID,0,VALID,99.7663,VALID,-0.220751,VALID,20.7038,VALID,4,VALID,0.688802,
2006-04-16, 01:48:01,VALID,917.961,VALID,0,VALID,99.6531,VALID,-0.20377,VALID,20.5051,VALID,1,VALID,0.729106,
2006-04-16, 01:49:00,VALID,917.963,VALID,0,VALID,99.5247,VALID,-0.220751,VALID,19.9107,VALID,334,VALID,0.95277,
2006-04-16, 01:50:01,VALID,917.984,VALID,0,VALID,99.7243,VALID,-0.20377,VALID,19.6456,VALID,359,VALID,0.831845,
2006-04-16, 01:51:00,VALID,918.003,VALID,0,VALID,99.8629,VALID,-0.220751,VALID,19.6904,VALID,22,VALID,1.31027,
2006-04-16, 01:52:01,VALID,918.015,VALID,0,VALID,99.9728,VALID,-0.237732,VALID,19.1138,VALID,20,VALID,1.3621,
2006-04-16, 01:53:00,VALID,918.027,VALID,0,VALID,100,VALID,-0.254712,VALID,20.0002,VALID,356,VALID,0.795007,
2006-04-16, 01:54:00,VALID,918.056,VALID,0,VALID,100,VALID,-0.237732,VALID,19.8515,VALID,15,VALID,0.932292,
2006-04-16, 01:55:01,VALID,918.081,VALID,0,VALID,100,VALID,-0.237732,VALID,18.944,VALID,7,VALID,0.629084,
2006-04-16, 01:56:01,VALID,918.1,VALID,0,VALID,100,VALID,-0.254712,VALID,21.1589,VALID,6,VALID,0.60597,
2006-04-16, 01:57:00,VALID,918.105,VALID,0,VALID,100,VALID,-0.254712,VALID,19.9543,VALID,28,VALID,0.762277,
2006-04-16, 01:58:01,VALID,918.112,VALID,0,VALID,100,VALID,-0.254712,VALID,19.7033,VALID,21,VALID,0.747396,
2006-04-16, 01:59:01,VALID,918.101,VALID,0,VALID,100,VALID,-0.271693,VALID,19.8674,VALID,15,VALID,0.708681,
2006-04-16, 02:00:01,VALID,918.092,VALID,0,VALID,100,VALID,-0.254712,VALID,20.0474,VALID,325,VALID,0.946039,
2006-04-16, 02:01:01,VALID,918.08,VALID,0,VALID,100,VALID,-0.237732,VALID,19.9145,VALID,344,VALID,1.12333,
2006-04-16, 02:02:01,VALID,918.083,VALID,0,VALID,100,VALID,-0.254712,VALID,19.9812,VALID,345,VALID,0.592035,
2006-04-16, 02:03:01,VALID,918.08,VALID,0,VALID,100,VALID,-0.254712,VALID,19.865,VALID,344,VALID,0.317522,
2006-04-16, 02:04:00,VALID,918.061,VALID,0,VALID,100,VALID,-0.254712,VALID,20.2021,VALID,310,VALID,0.437881,
2006-04-16, 02:05:00,VALID,918.058,VALID,0,VALID,100,VALID,-0.237732,VALID,19.9446,VALID,309,VALID,0.341704,
2006-04-16, 02:06:00,VALID,918.065,VALID,0,VALID,100,VALID,-0.353456,VALID,20.0822,VALID,349,VALID,0.574751,
2006-04-16, 02:07:00,VALID,918.076,VALID,0,VALID,100,VALID,-0.867295,VALID,20.4661,VALID,349,VALID,0.520008,
2006-04-16, 02:08:00,VALID,918.085,VALID,0,VALID,100,VALID,-0.237732,VALID,19.3644,VALID,358,VALID,0.526736,
2006-04-16, 02:09:00,VALID,918.099,VALID,0,VALID,100,VALID,-0.339617,VALID,19.0254,VALID,3,VALID,0.188368,
2006-04-16, 02:10:00,VALID,918.107,VALID,0,VALID,100,VALID,-0.322636,VALID,20.1925,VALID,3,VALID,0.0261009,
2006-04-16, 02:11:00,VALID,918.115,VALID,0,VALID,100,VALID,-0.20377,VALID,20.3839,VALID,3,VALID,0.115319,
2006-04-16, 02:12:01,VALID,918.132,VALID,0,VALID,100,VALID,-0.271693,VALID,20.7161,VALID,3,VALID,0.0815305,
2006-04-16, 02:13:01,VALID,918.126,VALID,0,VALID,100,VALID,-0.237732,VALID,19.8038,VALID,3,VALID,0.0742188,
2006-04-16, 02:14:00,VALID,918.122,VALID,0,VALID,100,VALID,-0.271693,VALID,20.8821,VALID,3,VALID,0.0223214,
2006-04-16, 02:15:00,VALID,918.103,VALID,0,VALID,100,VALID,-0.254712,VALID,20.8104,VALID,3,VALID,0.149164,
2006-04-16, 02:16:01,VALID,918.089,VALID,0,VALID,100,VALID,-0.254712,VALID,19.9843,VALID,3,VALID,0.0589658,
2006-04-16, 02:17:00,VALID,918.082,VALID,0,VALID,100,VALID,-0.254712,VALID,20.1789,VALID,3,VALID,0.0576637,
2006-04-16, 02:18:00,VALID,918.068,VALID,0,VALID,100,VALID,-0.254712,VALID,19.8179,VALID,3,VALID,0.174137,
2006-04-16, 02:19:00,VALID,918.054,VALID,0.2,VALID,100,VALID,-0.220751,VALID,20.3962,VALID,3,VALID,0.096875,
2006-04-16, 02:20:01,VALID,918.05,VALID,0,VALID,100,VALID,-0.220751,VALID,20.2051,VALID,3,VALID,0.0355718,
2006-04-16, 02:21:01,VALID,918.043,VALID,0,VALID,100,VALID,-0.237732,VALID,20.3981,VALID,3,VALID,0.262821,
2006-04-16, 02:22:01,VALID,918.063,VALID,0,VALID,99.999,VALID,-0.237732,VALID,19.46,VALID,3,VALID,0.376999,
2006-04-16, 02:23:00,VALID,918.072,VALID,0,VALID,99.9659,VALID,-0.220751,VALID,20.8386,VALID,3,VALID,0.359003,
2006-04-16, 02:24:00,VALID,918.084,VALID,0,VALID,99.973,VALID,-0.220751,VALID,20.5159,VALID,3,VALID,0.306424,
2006-04-16, 02:25:00,VALID,918.092,VALID,0,VALID,100,VALID,-0.20377,VALID,20.0198,VALID,3,VALID,0.255078,
2006-04-16, 02:26:01,VALID,918.098,VALID,0,VALID,99.9903,VALID,-0.20377,VALID,20.2139,VALID,3,VALID,0.221528,
2006-04-16, 02:27:01,VALID,918.097,VALID,0,VALID,99.9201,VALID,-0.237732,VALID,20.7698,VALID,3,VALID,0.268359,
2006-04-16, 02:28:01,VALID,918.087,VALID,0,VALID,99.7752,VALID,-0.237732,VALID,20.0878,VALID,3,VALID,0.382622,
2006-04-16, 02:29:00,VALID,918.091,VALID,0,VALID,99.6302,VALID,-0.220751,VALID,20.1535,VALID,3,VALID,0.407012,
2006-04-16, 02:30:01,VALID,918.096,VALID,0,VALID,99.5577,VALID,-0.237732,VALID,19.5278,VALID,3,VALID,0.446429,
2006-04-16, 02:31:00,VALID,918.099,VALID,0,VALID,99.7612,VALID,-0.254712,VALID,19.5724,VALID,3,VALID,0.414444,
2006-04-16, 02:32:00,VALID,918.113,VALID,0,VALID,99.9062,VALID,-0.220751,VALID,20.1565,VALID,3,VALID,0.49535,
2006-04-16, 02:33:01,VALID,918.124,VALID,0.2,VALID,99.8095,VALID,-0.135847,VALID,20.2429,VALID,3,VALID,0.388139,
2006-04-16, 02:34:00,VALID,918.138,VALID,0,VALID,99.7968,VALID,-0.220751,VALID,20.501,VALID,3,VALID,0.430778,
2006-04-16, 02:35:01,VALID,918.135,VALID,0,VALID,99.9074,VALID,-0.220751,VALID,20.6949,VALID,4,VALID,0.354688,
2006-04-16, 02:36:01,VALID,918.141,VALID,0,VALID,99.9878,VALID,-0.237732,VALID,19.6378,VALID,5,VALID,0.192935,
2006-04-16, 02:37:00,VALID,918.153,VALID,0,VALID,100,VALID,-0.220751,VALID,19.3997,VALID,5,VALID,0,
2006-04-16, 02:38:00,VALID,918.157,VALID,0,VALID,99.9865,VALID,-0.220751,VALID,20.3878,VALID,5,VALID,0,
2006-04-16, 02:39:00,VALID,918.157,VALID,0,VALID,99.9011,VALID,-0.220751,VALID,19.7213,VALID,5,VALID,0,
2006-04-16, 02:40:00,VALID,918.161,VALID,0,VALID,99.5196,VALID,-0.20377,VALID,19.9361,VALID,5,VALID,0,
2006-04-16, 02:41:00,VALID,918.174,VALID,0,VALID,99.3632,VALID,-0.237732,VALID,19.6816,VALID,5,VALID,0,
2006-04-16, 02:42:01,VALID,918.19,VALID,0,VALID,99.4102,VALID,-0.20377,VALID,19.8199,VALID,5,VALID,0.191679,
2006-04-16, 02:43:01,VALID,918.205,VALID,0,VALID,99.5272,VALID,-0.220751,VALID,20.3947,VALID,112,VALID,0.530342,
2006-04-16, 02:44:00,VALID,918.216,VALID,0,VALID,99.5094,VALID,-0.20377,VALID,19.9835,VALID,155,VALID,0.731213,
2006-04-16, 02:45:00,VALID,918.233,VALID,0,VALID,99.5374,VALID,-0.135847,VALID,20.3041,VALID,154,VALID,0.477834,
2006-04-16, 02:46:01,VALID,918.219,VALID,0,VALID,99.6239,VALID,-0.220751,VALID,20.4171,VALID,154,VALID,0.310785,
2006-04-16, 02:47:00,VALID,918.232,VALID,0,VALID,99.6938,VALID,-0.220751,VALID,20.038,VALID,154,VALID,0.34375,
2006-04-16, 02:48:00,VALID,918.236,VALID,0,VALID,99.6213,VALID,-0.237732,VALID,19.1796,VALID,154,VALID,0.370486,
2006-04-16, 02:49:01,VALID,918.227,VALID,0,VALID,99.5654,VALID,-0.237732,VALID,19.8615,VALID,154,VALID,0.377544,
2006-04-16, 02:50:01,VALID,918.228,VALID,0,VALID,99.6518,VALID,-0.237732,VALID,20.1919,VALID,154,VALID,0.417459,
2006-04-16, 02:51:01,VALID,918.239,VALID,0,VALID,99.7612,VALID,-0.237732,VALID,20.1969,VALID,154,VALID,0.414789,
2006-04-16, 02:52:00,VALID,918.249,VALID,0,VALID,99.896,VALID,-0.254712,VALID,20.0193,VALID,154,VALID,0.393043,
2006-04-16, 02:53:00,VALID,918.269,VALID,0,VALID,99.9939,VALID,-0.254712,VALID,20.9493,VALID,154,VALID,0.419444,
2006-04-16, 02:54:00,VALID,918.272,VALID,0,VALID,100,VALID,-0.254712,VALID,20.0905,VALID,154,VALID,0.240945,
2006-04-16, 02:55:01,VALID,918.285,VALID,0,VALID,100,VALID,-0.237732,VALID,19.6999,VALID,152,VALID,0.486285,
2006-04-16, 02:56:00,VALID,918.291,VALID,0,VALID,100,VALID,-0.237732,VALID,19.6503,VALID,152,VALID,0.36582,
2006-04-16, 02:57:00,VALID,918.292,VALID,0,VALID,100,VALID,-0.237732,VALID,19.7548,VALID,152,VALID,0.271205,
2006-04-16, 02:58:00,VALID,918.307,VALID,0,VALID,100,VALID,-0.20377,VALID,20.3512,VALID,151,VALID,0.481712,
2006-04-16, 02:59:00,VALID,918.323,VALID,0,VALID,100,VALID,-0.220751,VALID,20.6544,VALID,151,VALID,0.402539,
2006-04-16, 03:00:01,VALID,918.328,VALID,0,VALID,100,VALID,-0.186789,VALID,20.0251,VALID,152,VALID,0.59375,
2006-04-16, 03:01:01,VALID,918.324,VALID,0,VALID,100,VALID,-0.220751,VALID,20.5208,VALID,154,VALID,0.694444,
2006-04-16, 03:02:00,VALID,918.349,VALID,0,VALID,100,VALID,-0.220751,VALID,20.4379,VALID,154,VALID,0.608073,
2006-04-16, 03:03:01,VALID,918.373,VALID,0,VALID,100,VALID,-0.220751,VALID,19.9959,VALID,154,VALID,0.646577,
2006-04-16, 03:04:01,VALID,918.399,VALID,0,VALID,100,VALID,-0.20377,VALID,19.6638,VALID,154,VALID,0.749455,
2006-04-16, 03:05:01,VALID,918.432,VALID,0,VALID,100,VALID,-0.20377,VALID,20.2341,VALID,144,VALID,0.665039,
2006-04-16, 03:06:01,VALID,918.447,VALID,0,VALID,100,VALID,-0.237732,VALID,19.5945,VALID,142,VALID,0.571911,
2006-04-16, 03:07:01,VALID,918.473,VALID,0,VALID,100,VALID,-0.237732,VALID,20.0123,VALID,145,VALID,0.793857,
2006-04-16, 03:08:01,VALID,918.492,VALID,0,VALID,100,VALID,-0.220751,VALID,20.3003,VALID,141,VALID,0.712139,
2006-04-16, 03:09:01,VALID,918.507,VALID,0,VALID,100,VALID,-0.220751,VALID,20.4522,VALID,141,VALID,0.336115,
2006-04-16, 03:10:01,VALID,918.519,VALID,0,VALID,100,VALID,-0.20377,VALID,20.4613,VALID,141,VALID,0.365767,
2006-04-16, 03:11:00,VALID,918.522,VALID,0,VALID,100,VALID,-0.20377,VALID,20.137,VALID,141,VALID,0.40816,
2006-04-16, 03:12:01,VALID,918.525,VALID,0,VALID,100,VALID,-0.20377,VALID,20.3667,VALID,141,VALID,0.203869,
2006-04-16, 03:13:01,VALID,918.536,VALID,0,VALID,100,VALID,-0.20377,VALID,19.687,VALID,141,VALID,0,
2006-04-16, 03:14:00,VALID,918.53,VALID,0,VALID,100,VALID,-0.186789,VALID,19.8873,VALID,141,VALID,0,
2006-04-16, 03:15:01,VALID,918.54,VALID,0,VALID,100,VALID,-0.20377,VALID,20.3238,VALID,141,VALID,0.00093006,
2006-04-16, 03:16:01,VALID,918.549,VALID,0,VALID,100,VALID,-0.20377,VALID,19.3774,VALID,141,VALID,0,
2006-04-16, 03:17:01,VALID,918.562,VALID,0,VALID,100,VALID,-0.220751,VALID,20.7887,VALID,141,VALID,0,
2006-04-16, 03:18:01,VALID,918.549,VALID,0,VALID,100,VALID,-0.20377,VALID,19.347,VALID,141,VALID,0.146326,
2006-04-16, 03:19:01,VALID,918.571,VALID,0,VALID,100,VALID,-0.20377,VALID,20.531,VALID,141,VALID,0.237393,
2006-04-16, 03:20:01,VALID,918.589,VALID,0,VALID,100,VALID,-0.20377,VALID,20.5155,VALID,84,VALID,0.428416,
2006-04-16, 03:21:01,VALID,918.601,VALID,0,VALID,100,VALID,-0.20377,VALID,20.6448,VALID,51,VALID,0.551153,
2006-04-16, 03:22:01,VALID,918.613,VALID,0,VALID,100,VALID,-0.220751,VALID,20.9805,VALID,45,VALID,0.58817,
2006-04-16, 03:23:01,VALID,918.613,VALID,0,VALID,100,VALID,-0.20377,VALID,20.1082,VALID,38,VALID,0.555618,
2006-04-16, 03:24:00,VALID,918.618,VALID,0,VALID,100,VALID,-0.20377,VALID,19.4039,VALID,31,VALID,0.483574,
2006-04-16, 03:25:01,VALID,918.629,VALID,0,VALID,100,VALID,-0.20377,VALID,20.8588,VALID,31,VALID,0.323686,
2006-04-16, 03:26:01,VALID,918.623,VALID,0,VALID,100,VALID,-0.220751,VALID,18.6134,VALID,31,VALID,0.111923,
2006-04-16, 03:27:01,VALID,918.632,VALID,0,VALID,100,VALID,-0.220751,VALID,19.7249,VALID,31,VALID,0.0254836,
2006-04-16, 03:28:01,VALID,918.651,VALID,0,VALID,100,VALID,-0.237732,VALID,20.7443,VALID,31,VALID,0,
2006-04-16, 03:29:01,VALID,918.649,VALID,0,VALID,100,VALID,-0.237732,VALID,19.841,VALID,31,VALID,0,
2006-04-16, 03:30:01,VALID,918.659,VALID,0,VALID,100,VALID,-0.20377,VALID,20.032,VALID,31,VALID,0,
2006-04-16, 03:31:01,VALID,918.667,VALID,0,VALID,100,VALID,-0.220751,VALID,20.0578,VALID,31,VALID,0.247142,
2006-04-16, 03:32:01,VALID,918.67,VALID,0,VALID,100,VALID,-0.254712,VALID,19.6738,VALID,38,VALID,0.530185,
2006-04-16, 03:33:01,VALID,918.675,VALID,0,VALID,100,VALID,-0.237732,VALID,21.2622,VALID,49,VALID,0.510719,
2006-04-16, 03:34:01,VALID,918.682,VALID,0,VALID,100,VALID,-0.220751,VALID,21.194,VALID,55,VALID,0.0727896,
2006-04-16, 03:35:01,VALID,918.681,VALID,0,VALID,100,VALID,-0.237732,VALID,20.3325,VALID,55,VALID,0.123728,
2006-04-16, 03:36:01,VALID,918.68,VALID,0,VALID,100,VALID,-0.20377,VALID,20.051,VALID,56,VALID,0.320508,
2006-04-16, 03:37:01,VALID,918.686,VALID,0,VALID,100,VALID,-0.254712,VALID,20.0588,VALID,56,VALID,0.195122,